FW0598 Weather Reports


Display with metric or nautical units.
time (UTC)temp
F
wind
direction
speed
MPH
gust
MPH
rain 1hr
in
rain 24hr
in
rain mn
in
humidity
%
barometer
mb
20260509134502 36 60 0.0 0.0 0.00 0.00 0.00 87 1016.6
20260509133106 36 60 0.0 0.0 0.00 0.00 0.00 86 1016.7
20260509131542 36 60 0.0 0.0 0.00 0.00 0.00 86 1016.7
20260509130044 37 60 0.0 0.0 0.00 0.00 0.00 86 1016.6
20260509124522 37 60 0.0 0.0 0.00 0.00 0.00 86 1016.6
20260509123021 38 59 0.0 0.0 0.00 0.00 0.00 86 1016.7
20260509121503 38 60 0.0 0.0 0.00 0.00 0.00 86 1016.7
20260509120009 38 60 0.0 0.0 0.00 0.00 0.00 86 1016.7
20260509114553 39 60 0.0 0.0 0.00 0.00 0.00 86 1016.7
20260509113044 39 60 0.0 0.0 0.00 0.00 0.00 85 1016.5
20260509111522 40 60 0.0 0.0 0.00 0.00 0.00 85 1016.2
20260509110020 40 60 0.0 0.0 0.00 0.00 0.00 85 1016.1
20260509104501 41 60 0.0 0.0 0.00 0.00 0.00 85 1016.0
20260509103103 42 60 0.0 0.0 0.00 0.00 0.00 85 1015.9
20260509101543 42 60 0.0 0.0 0.00 0.00 0.00 85 1015.7
20260509100044 43 60 0.0 0.0 0.00 0.00 0.00 84 1015.6
20260509094523 43 60 0.0 0.0 0.00 0.00 0.00 83 1015.7
20260509093022 44 60 0.0 0.0 0.00 0.00 0.00 82 1015.6
20260509091504 45 60 0.0 0.0 0.00 0.00 0.00 82 1015.5
20260509090002 46 60 0.0 0.0 0.00 0.00 0.00 82 1015.2
20260509084548 47 60 0.0 0.0 0.00 0.00 0.00 81 1015.0
20260509083042 48 60 0.0 0.0 0.00 0.00 0.00 81 1014.8
20260509081524 49 59 0.0 0.0 0.00 0.00 0.00 80 1014.5
20260509080035 50 60 0.0 0.0 0.00 0.00 0.00 80 1014.3
20260509074505 51 60 0.0 0.0 0.00 0.00 0.00 79 1014.0
20260509073011 53 60 0.0 0.0 0.00 0.00 0.00 75 1013.8
20260509071550 55 60 0.0 0.0 0.00 0.00 0.00 74 1013.4
20260509070047 56 60 0.0 0.0 0.00 0.00 0.00 74 1013.2
20260509064533 57 60 0.0 0.0 0.00 0.00 0.00 71 1012.9
20260509063033 58 60 0.0 0.0 0.00 0.00 0.00 70 1012.8
20260509061534 59 60 0.0 0.0 0.00 0.00 0.00 68 1012.7
20260509060032 60 60 0.0 0.0 0.00 0.00 0.00 66 1012.6
20260509054536 60 60 0.0 0.0 0.00 0.00 0.00 64 1012.5
20260509053033 61 60 0.0 0.0 0.00 0.00 0.00 62 1012.6
20260509051538 62 60 0.0 0.0 0.00 0.00 0.00 62 1012.5
20260509050037 62 60 0.0 0.0 0.00 0.00 0.00 61 1012.5
20260509044532 63 60 0.0 0.0 0.00 0.00 0.00 59 1012.5
20260509043132 63 20 0.0 0.0 0.00 0.00 0.00 58 1012.5
20260509041540 63 20 0.0 4.0 0.00 0.00 0.00 58 1012.5
20260509040039 64 108 0.0 0.0 0.00 0.00 0.00 57 1012.5
20260509034538 64 84 0.0 0.0 0.00 0.00 0.00 58 1012.6
20260509033037 64 94 0.0 0.0 0.00 0.00 0.00 59 1012.5
20260509031501 64 128 0.0 0.0 0.00 0.00 0.00 58 1012.7
20260509030059 63 147 0.0 0.0 0.00 0.00 0.00 59 1012.8
20260509024541 63 44 0.0 0.0 0.00 0.00 0.00 59 1013.1
20260509023036 63 153 1.0 6.0 0.00 0.00 0.00 59 1013.3
20260509021520 62 56 0.0 4.0 0.00 0.00 0.00 63 1013.5
20260509020012 61 44 0.0 1.0 0.00 0.00 0.00 62 1013.9
20260509014550 60 41 0.0 0.0 0.00 0.00 0.00 64 1014.2
20260509013100 60 137 0.0 0.0 0.00 0.00 0.00 64 1014.4
20260509011526 59 153 0.0 0.0 0.00 0.00 0.00 66 1014.5
20260509010025 58 153 0.0 0.0 0.00 0.00 0.00 67 1014.7
20260509004502 57 153 0.0 0.0 0.00 0.00 0.00 71 1014.8
20260509003100 56 153 0.0 0.0 0.00 0.00 0.00 75 1014.9
20260509001535 54 153 0.0 0.0 0.00 0.00 0.00 81 1015.0
20260509000031 52 153 0.0 0.0 0.00 0.00 0.00 88 1015.1
20260508234509 50 153 0.0 0.0 0.00 0.00 0.00 93 1015.0
20260508233005 48 153 0.0 0.0 0.00 0.00 0.00 95 1015.0
20260508231543 46 153 0.0 0.0 0.00 0.00 0.00 95 1015.1
20260508230052 43 153 0.0 0.0 0.00 0.00 0.00 95 1015.2
20260508224519 41 153 0.0 0.0 0.00 0.00 0.00 94 1015.2
20260508223021 39 153 0.0 0.0 0.00 0.00 0.00 94 1015.0
20260508221552 38 153 0.0 0.0 0.00 0.00 0.00 93 1014.8
20260508220054 37 153 0.0 0.0 0.00 0.00 0.00 92 1014.6
20260508214532 37 153 0.0 0.0 0.00 0.00 0.00 92 1014.5
20260508213030 0 0.0 0.0 0.00 0.00 0.00 1014.2
20260508211509 0 0.0 0.0 0.00 0.00 0.00 1014.1
20260508210004 0 0.0 0.0 0.00 0.00 0.00 1013.9
20260508204542 0 0.0 0.0 0.00 0.00 0.00 1013.7
20260508203038 0 0.0 0.0 0.00 0.00 0.00 1013.5
20260508201516 0 0.0 0.0 0.00 0.00 0.00 1013.2
20260508200014 0 0.0 0.0 0.00 0.00 0.00 1013.0
20260508194551 0 0.0 0.0 0.00 0.00 0.00 1012.9
20260508193052 0 0.0 0.0 0.00 0.00 0.00 1012.9
20260508191533 40 153 0.0 0.0 0.00 0.00 0.00 87 1012.8
20260508190029 40 153 0.0 0.0 0.00 0.00 0.00 87 1012.7
20260508184549 41 153 0.0 0.0 0.00 0.00 0.00 88 1012.6
20260508183021 42 153 0.0 0.0 0.00 0.00 0.00 88 1012.5
20260508181535 43 153 0.0 0.0 0.00 0.00 0.00 89 1012.5
20260508180015 44 153 0.0 0.0 0.00 0.00 0.00 89 1012.3
20260508174516 44 153 0.0 0.0 0.00 0.00 0.00 89 1012.2
20260508173012 44 153 0.0 0.0 0.00 0.00 0.00 89 1012.3
20260508171554 44 153 0.0 0.0 0.00 0.00 0.00 89 1012.4
20260508170053 44 153 0.0 0.0 0.00 0.00 0.00 89 1012.5
20260508164533 45 153 0.0 0.0 0.00 0.00 0.00 89 1012.5
20260508163032 45 153 0.0 0.0 0.00 0.00 0.00 89 1012.4
20260508161511 45 153 0.0 0.0 0.00 0.00 0.00 89 1012.2
20260508160015 45 153 0.0 0.0 0.00 0.00 0.00 89 1012.3
20260508154609 45 153 0.0 0.0 0.00 0.00 0.00 89 1012.4
20260508153051 45 153 0.0 0.0 0.00 0.00 0.00 88 1012.4
20260508151559 46 153 0.0 0.0 0.00 0.00 0.00 88 1012.3
20260508150036 46 153 0.0 0.0 0.00 0.00 0.00 88 1012.3
20260508144545 46 153 0.0 0.0 0.00 0.00 0.00 88 1012.2
20260508143011 46 153 0.0 0.0 0.00 0.00 0.00 88 1012.0
20260508141512 46 153 0.0 0.0 0.00 0.00 0.00 88 1012.1
20260508140055 47 153 0.0 0.0 0.00 0.00 0.00 88 1012.1